Regional Weather Roundup
Issued by NWS State College, PA

Home | Current Version | Previous Version | Text Only | Print | Product List | Glossary On
Versions: 1 2 3 4 5 6 7 8 9 10 11 12 13 14 15 16 17 18 19 20 21 22 23 24 25 26 27 28 29 30 31 32 33 34 35 36 37 38 39 40 41 42 43 44 45 46 47 48 49 50
000
ASUS41 KCTP 211910
RWRCTP

REGIONAL WEATHER ROUNDUP
NATIONAL WEATHER SERVICE STATE COLLEGE PA
300 PM EDT TUE OCT 21 2014

Note: "fair" indicates few or no clouds below 12,000 feet with no
significant weather and/or obstructions to visibility.

* = STATION THAT DOES NOT REPORT PRECIPITATION /E.G. RAIN...SNOW...ETC/
    THUNDER OR FOG.

PAZ002>004-007>009-013>016-020>023-029>032-212000-
WESTERN PENNSYLVANIA

CITY           SKY/WX    TMP DP  RH WIND       PRES   REMARKS
ERIE           CLOUDY    51  44  77 NW6       29.91R
MEADVILLE      CLOUDY    47  44  90 NW5       29.90R FOG
FRANKLIN*      CLOUDY    48  45  87 NW5       29.90S
NEW CASTLE     LGT RAIN  48  46  93 N13G18    29.92S FOG
BEAVER COUNTY  RAIN      50  50 100 NW9       29.90R
BUTLER*        CLOUDY    52  45  76 NW8       29.90S
PITTSBURGH INT LGT RAIN  53  45  74 NW15      29.88S
PITTSBURGH     CLOUDY    55  43  63 NW7       29.86F
INDIANA*       PTSUNNY   52  45  76 N13       29.89F
LATROBE        CLOUDY    54  48  82 VRB3      29.87F
WASHINGTON CO* CLOUDY    54  46  76 NW9       29.91R
$$

PAZ004>006-010>012-017>019-024>028-033>037-041-042-045-046-049>053-212000-
CENTRAL PENNSYLVANIA

CITY           SKY/WX    TMP DP  RH WIND       PRES   REMARKS
BRADFORD       LGT RAIN  50  44  80 N8        29.85S
DUBOIS         LGT RAIN  48  46  93 NW7       29.85S
CLEARFIELD     CLOUDY    51  46  83 N3        29.85S
JOHNSTOWN      PTSUNNY   50  43  77 NW12G17   29.84F
ALTOONA        CLOUDY    56  47  71 N6        29.83F
STATE COLLEGE  PTSUNNY   54  50  87 CALM      29.84F
WILLIAMSPORT   CLOUDY    57  47  69 CALM      29.84S
SELINSGROVE    CLOUDY    60  47  61 NW5       29.84S
FT INDIANTOWN  PTSUNNY   62  53  72 N5        29.83F
CAPITAL CITY   PTSUNNY   64  49  57 N3        29.82F
HARRISBURG     PTSUNNY   62  49  62 W6        29.81F
YORK           MOSUNNY   64  49  57 VRB5      29.82F
$$

PAZ038>040-043-044-047-048-054-055-060>062-067>071-212000-
EASTERN PENNSYLVANIA

CITY           SKY/WX    TMP DP  RH WIND       PRES   REMARKS
SCRANTON       CLOUDY    59  46  62 W5        29.83S
MOUNT POCONO   CLOUDY    54  47  77 E6        29.84F
ALLENTOWN      PTSUNNY   64  45  49 CALM      29.82F
QUAKERTOWN*    MOCLDY    64  50  59 NW6       29.83S
READING        PTSUNNY   65  49  56 N6        29.82S
LANCASTER      CLOUDY    62  48  60 NW6       29.83S
COATESVILLE    MOCLDY    63  48  59 W3        29.83S
POTTSTOWN      CLOUDY    64  47  53 VRB5      29.83F
BLUE BELL      MOSUNNY   68  48  49 CALM      29.80F
DOYLESTOWN     SUNNY     64  47  53 SW6       29.81S
WILLOW GROVE   NOT AVBL
NORTH PHILA    MOSUNNY   70  44  39 VRB5      29.82F
PHILADELPHIA   MOSUNNY   69  48  47 S6        29.81F
$$



USA.gov is the U.S. government's official web portal to all federal, state and local government web resources and services.